Year,Month,Day,Hour,Minute,Value (Times are PST for windgust in km/hr)
2013,04,08,00,00,3.20
2013,04,08,00,01,14.50
2013,04,08,00,02,16.10
2013,04,08,00,03,14.50
2013,04,08,00,04,11.30
2013,04,08,00,05,8.10
2013,04,08,00,06,14.50
2013,04,08,00,07,9.60
2013,04,08,00,08,11.30
2013,04,08,00,09,16.10
2013,04,08,00,10,19.30
2013,04,08,00,11,16.10
2013,04,08,00,12,17.70
2013,04,08,00,13,11.30
2013,04,08,00,14,24.20
2013,04,08,00,15,9.60
2013,04,08,00,16,17.70
2013,04,08,00,17,8.10
2013,04,08,00,18,14.50
2013,04,08,00,19,6.40
2013,04,08,00,20,14.50
2013,04,08,00,21,9.60
2013,04,08,00,22,16.10
2013,04,08,00,23,11.30
2013,04,08,00,24,11.30
2013,04,08,00,25,12.90
2013,04,08,00,26,9.60
2013,04,08,00,27,8.10
2013,04,08,00,28,20.90
2013,04,08,00,29,12.90
2013,04,08,00,30,9.60
2013,04,08,00,31,9.60
2013,04,08,00,32,8.10
2013,04,08,00,33,6.40
2013,04,08,00,34,11.30
2013,04,08,00,35,16.10
2013,04,08,00,36,19.30
2013,04,08,00,37,19.30
2013,04,08,00,38,11.30
2013,04,08,00,39,8.10
2013,04,08,00,40,17.70
2013,04,08,00,41,16.10
2013,04,08,00,42,11.30
2013,04,08,00,43,16.10
2013,04,08,00,44,17.70
2013,04,08,00,45,9.60
2013,04,08,00,46,11.30
2013,04,08,00,47,11.30
2013,04,08,00,48,8.10
2013,04,08,00,49,8.10
2013,04,08,00,50,17.70
2013,04,08,00,51,11.30
2013,04,08,00,52,11.30
2013,04,08,00,53,8.10
2013,04,08,00,54,11.30
2013,04,08,00,55,9.60
2013,04,08,00,56,4.80
2013,04,08,00,57,11.30
2013,04,08,00,58,9.60
2013,04,08,00,59,12.90
2013,04,08,01,00,9.60
2013,04,08,01,01,12.90
2013,04,08,01,02,14.50
2013,04,08,01,03,8.10
2013,04,08,01,04,4.80
2013,04,08,01,05,9.60
2013,04,08,01,06,14.50
2013,04,08,01,07,14.50
2013,04,08,01,08,4.80
2013,04,08,01,09,8.10
2013,04,08,01,10,6.40
2013,04,08,01,11,6.40
2013,04,08,01,12,8.10
2013,04,08,01,13,4.80
2013,04,08,01,14,6.40
2013,04,08,01,15,6.40
2013,04,08,01,16,8.10
2013,04,08,01,17,11.30
2013,04,08,01,18,4.80
2013,04,08,01,19,4.80
2013,04,08,01,20,8.10
2013,04,08,01,21,4.80
2013,04,08,01,22,16.10
2013,04,08,01,23,16.10
2013,04,08,01,24,8.10
2013,04,08,01,25,9.60
2013,04,08,01,26,8.10
2013,04,08,01,27,9.60
2013,04,08,01,28,8.10
2013,04,08,01,29,4.80
2013,04,08,01,30,6.40
2013,04,08,01,31,6.40
2013,04,08,01,32,4.80
2013,04,08,01,33,6.40
2013,04,08,01,34,8.10
2013,04,08,01,35,4.80
2013,04,08,01,36,6.40
2013,04,08,01,37,4.80
2013,04,08,01,38,4.80
2013,04,08,01,39,6.40
2013,04,08,01,40,6.40
2013,04,08,01,41,6.40
2013,04,08,01,42,6.40
2013,04,08,01,43,4.80
2013,04,08,01,44,3.20
2013,04,08,01,45,3.20
2013,04,08,01,46,11.30
2013,04,08,01,47,9.60
2013,04,08,01,48,8.10
2013,04,08,01,49,3.20
2013,04,08,01,50,6.40
2013,04,08,01,51,9.60
2013,04,08,01,52,6.40
2013,04,08,01,53,6.40
2013,04,08,01,54,9.60
2013,04,08,01,55,6.40
2013,04,08,01,56,11.30
2013,04,08,01,57,6.40
2013,04,08,01,58,8.10
2013,04,08,01,59,8.10
2013,04,08,02,00,6.40
2013,04,08,02,01,4.80
2013,04,08,02,02,16.10
2013,04,08,02,03,12.90
2013,04,08,02,04,9.60
2013,04,08,02,05,4.80
2013,04,08,02,06,9.60
2013,04,08,02,07,6.40
2013,04,08,02,08,6.40
2013,04,08,02,09,6.40
2013,04,08,02,10,6.40
2013,04,08,02,11,4.80
2013,04,08,02,12,9.60
2013,04,08,02,13,14.50
2013,04,08,02,14,6.40
2013,04,08,02,15,8.10
2013,04,08,02,16,9.60
2013,04,08,02,17,9.60
2013,04,08,02,18,6.40
2013,04,08,02,19,6.40
2013,04,08,02,20,11.30
2013,04,08,02,21,3.20
2013,04,08,02,22,6.40
2013,04,08,02,23,3.20
2013,04,08,02,24,4.80
2013,04,08,02,25,4.80
2013,04,08,02,26,6.40
2013,04,08,02,27,4.80
2013,04,08,02,28,4.80
2013,04,08,02,29,3.20
2013,04,08,02,30,6.40
2013,04,08,02,31,4.80
2013,04,08,02,32,6.40
2013,04,08,02,33,4.80
2013,04,08,02,34,8.10
2013,04,08,02,35,6.40
2013,04,08,02,36,4.80
2013,04,08,02,37,6.40
2013,04,08,02,38,6.40
2013,04,08,02,39,6.40
2013,04,08,02,40,6.40
2013,04,08,02,41,4.80
2013,04,08,02,42,6.40
2013,04,08,02,43,8.10
2013,04,08,02,44,6.40
2013,04,08,02,45,8.10
2013,04,08,02,46,6.40
2013,04,08,02,47,8.10
2013,04,08,02,48,3.20
2013,04,08,02,49,3.20
2013,04,08,02,50,4.80
2013,04,08,02,51,1.60
2013,04,08,02,52,3.20
2013,04,08,02,53,3.20
2013,04,08,02,54,8.10
2013,04,08,02,55,4.80
2013,04,08,02,56,3.20
2013,04,08,02,57,4.80
2013,04,08,02,58,4.80
2013,04,08,02,59,3.20
2013,04,08,03,00,3.20
2013,04,08,03,01,1.60
2013,04,08,03,02,4.80
2013,04,08,03,03,4.80
2013,04,08,03,04,6.40
2013,04,08,03,05,3.20
2013,04,08,03,06,4.80
2013,04,08,03,07,3.20
2013,04,08,03,08,3.20
2013,04,08,03,09,6.40
2013,04,08,03,10,8.10
2013,04,08,03,11,8.10
2013,04,08,03,12,4.80
2013,04,08,03,13,3.20
2013,04,08,03,14,6.40
2013,04,08,03,15,6.40
2013,04,08,03,16,6.40
2013,04,08,03,17,3.20
2013,04,08,03,18,4.80
2013,04,08,03,19,4.80
2013,04,08,03,20,4.80
2013,04,08,03,21,4.80
2013,04,08,03,22,1.60
2013,04,08,03,24,4.80
2013,04,08,03,25,4.80
2013,04,08,03,26,1.60
2013,04,08,03,27,8.10
2013,04,08,03,28,4.80
2013,04,08,03,29,4.80
2013,04,08,03,30,4.80
2013,04,08,03,31,4.80
2013,04,08,03,32,6.40
2013,04,08,03,33,8.10
2013,04,08,03,34,3.20
2013,04,08,03,35,4.80
2013,04,08,03,36,1.60
2013,04,08,03,37,1.60
2013,04,08,03,38,1.60
2013,04,08,03,39,3.20
2013,04,08,03,40,3.20
2013,04,08,03,41,3.20
2013,04,08,03,42,1.60
2013,04,08,03,43,6.40
2013,04,08,03,44,6.40
2013,04,08,03,45,3.20
2013,04,08,03,46,3.20
2013,04,08,03,47,6.40
2013,04,08,03,48,6.40
2013,04,08,03,49,6.40
2013,04,08,03,50,4.80
2013,04,08,03,51,3.20
2013,04,08,03,52,3.20
2013,04,08,03,53,4.80
2013,04,08,03,54,4.80
2013,04,08,03,55,3.20
2013,04,08,03,56,1.60
2013,04,08,03,57,1.60
2013,04,08,03,58,3.20
2013,04,08,03,59,3.20
2013,04,08,04,00,1.60
2013,04,08,04,01,3.20
2013,04,08,04,02,4.80
2013,04,08,04,03,1.60
2013,04,08,04,04,6.40
2013,04,08,04,05,6.40
2013,04,08,04,06,3.20
2013,04,08,04,07,4.80
2013,04,08,04,08,4.80
2013,04,08,04,09,3.20
2013,04,08,04,10,4.80
2013,04,08,04,11,3.20
2013,04,08,04,12,3.20
2013,04,08,04,13,3.20
2013,04,08,04,14,3.20
2013,04,08,04,15,3.20
2013,04,08,04,16,4.80
2013,04,08,04,17,3.20
2013,04,08,04,18,4.80
2013,04,08,04,19,6.40
2013,04,08,04,20,6.40
2013,04,08,04,21,6.40
2013,04,08,04,22,3.20
2013,04,08,04,23,1.60
2013,04,08,04,24,1.60
2013,04,08,04,25,3.20
2013,04,08,04,30,3.20
2013,04,08,04,31,3.20
2013,04,08,04,32,1.60
2013,04,08,04,33,1.60
2013,04,08,04,34,3.20
2013,04,08,04,35,3.20
2013,04,08,04,36,4.80
2013,04,08,04,37,3.20
2013,04,08,04,38,6.40
2013,04,08,04,39,4.80
2013,04,08,04,40,4.80
2013,04,08,04,41,1.60
2013,04,08,04,42,1.60
2013,04,08,04,43,3.20
2013,04,08,04,44,4.80
2013,04,08,04,45,3.20
2013,04,08,04,47,3.20
2013,04,08,04,48,6.40
2013,04,08,04,49,4.80
2013,04,08,04,50,4.80
2013,04,08,04,52,3.20
2013,04,08,04,53,4.80
2013,04,08,04,54,4.80
2013,04,08,04,55,3.20
2013,04,08,04,56,3.20
2013,04,08,04,57,3.20
2013,04,08,04,58,1.60
2013,04,08,05,00,1.60
2013,04,08,05,02,3.20
2013,04,08,05,03,3.20
2013,04,08,05,04,3.20
2013,04,08,05,05,3.20
2013,04,08,05,06,3.20
2013,04,08,05,07,1.60
2013,04,08,05,08,1.60
2013,04,08,05,09,1.60
2013,04,08,05,10,1.60
2013,04,08,05,24,3.20
2013,04,08,05,27,1.60
2013,04,08,05,29,1.60
2013,04,08,05,30,3.20
2013,04,08,05,31,3.20
2013,04,08,05,32,1.60
2013,04,08,05,33,3.20
2013,04,08,05,34,1.60
2013,04,08,05,35,1.60
2013,04,08,05,37,3.20
2013,04,08,05,38,1.60
2013,04,08,05,39,1.60
2013,04,08,05,40,1.60
2013,04,08,05,42,1.60
2013,04,08,05,43,1.60
2013,04,08,05,44,1.60
2013,04,08,05,45,1.60
2013,04,08,05,46,1.60
2013,04,08,05,47,1.60
2013,04,08,05,48,3.20
2013,04,08,05,50,3.20
2013,04,08,05,51,3.20
2013,04,08,05,52,4.80
2013,04,08,05,53,3.20
2013,04,08,05,54,4.80
2013,04,08,05,55,4.80
2013,04,08,05,56,4.80
2013,04,08,05,57,1.60
2013,04,08,06,02,3.20
2013,04,08,06,03,4.80
2013,04,08,06,05,1.60
2013,04,08,06,08,1.60
2013,04,08,06,10,3.20
2013,04,08,06,11,3.20
2013,04,08,06,12,3.20
2013,04,08,06,13,3.20
2013,04,08,06,14,3.20
2013,04,08,06,15,3.20
2013,04,08,06,16,3.20
2013,04,08,06,17,3.20
2013,04,08,06,18,1.60
2013,04,08,06,39,1.60
2013,04,08,08,18,1.60
2013,04,08,08,19,1.60
2013,04,08,08,20,3.20
2013,04,08,08,21,1.60
2013,04,08,08,31,1.60
2013,04,08,08,32,1.60
2013,04,08,08,33,1.60
2013,04,08,08,34,1.60
2013,04,08,08,35,1.60
2013,04,08,08,36,1.60
2013,04,08,08,39,3.20
2013,04,08,08,40,3.20
2013,04,08,08,41,4.80
2013,04,08,08,42,3.20
2013,04,08,08,43,4.80
2013,04,08,08,44,6.40
2013,04,08,08,45,4.80
2013,04,08,08,46,3.20
2013,04,08,08,47,4.80
2013,04,08,08,48,4.80
2013,04,08,08,49,6.40
2013,04,08,08,50,3.20
2013,04,08,08,51,6.40
2013,04,08,08,52,4.80
2013,04,08,08,53,4.80
2013,04,08,08,54,4.80
2013,04,08,08,55,4.80
2013,04,08,08,56,3.20
2013,04,08,08,57,6.40
2013,04,08,08,58,6.40
2013,04,08,08,59,8.10
2013,04,08,09,00,6.40
2013,04,08,09,01,4.80
2013,04,08,09,02,3.20
2013,04,08,09,03,3.20
2013,04,08,09,04,6.40
2013,04,08,09,05,4.80
2013,04,08,09,06,4.80
2013,04,08,09,07,1.60
2013,04,08,09,08,3.20
2013,04,08,09,09,3.20
2013,04,08,09,10,3.20
2013,04,08,09,11,1.60
2013,04,08,09,12,3.20
2013,04,08,09,13,4.80
2013,04,08,09,14,6.40
2013,04,08,09,15,4.80
2013,04,08,09,16,1.60
2013,04,08,09,17,3.20
2013,04,08,09,18,1.60
2013,04,08,09,19,1.60
2013,04,08,09,20,6.40
2013,04,08,09,21,4.80
2013,04,08,09,22,4.80
2013,04,08,09,23,1.60
2013,04,08,09,24,1.60
2013,04,08,09,25,3.20
2013,04,08,09,26,4.80
2013,04,08,09,27,4.80
2013,04,08,09,28,6.40
2013,04,08,09,29,3.20
2013,04,08,09,30,3.20
2013,04,08,09,31,1.60
2013,04,08,09,33,1.60
2013,04,08,09,34,1.60
2013,04,08,09,35,1.60
2013,04,08,09,36,3.20
2013,04,08,09,37,3.20
2013,04,08,09,38,1.60
2013,04,08,09,39,8.10
2013,04,08,09,40,6.40
2013,04,08,09,41,1.60
2013,04,08,09,42,1.60
2013,04,08,09,43,3.20
2013,04,08,09,44,1.60
2013,04,08,09,45,1.60
2013,04,08,09,46,4.80
2013,04,08,09,47,1.60
2013,04,08,09,48,1.60
2013,04,08,09,49,1.60
2013,04,08,09,50,1.60
2013,04,08,09,51,3.20
2013,04,08,09,52,6.40
2013,04,08,09,53,6.40
2013,04,08,09,54,3.20
2013,04,08,09,55,3.20
2013,04,08,09,57,3.20
2013,04,08,09,58,4.80
2013,04,08,09,59,3.20
2013,04,08,10,00,4.80
2013,04,08,10,01,1.60
2013,04,08,10,03,3.20
2013,04,08,10,04,3.20
2013,04,08,10,05,1.60
2013,04,08,10,06,1.60
2013,04,08,10,07,3.20
2013,04,08,10,08,1.60
2013,04,08,10,09,1.60
2013,04,08,10,10,3.20
2013,04,08,10,11,3.20
2013,04,08,10,12,6.40
2013,04,08,10,13,1.60
2013,04,08,10,14,1.60
2013,04,08,10,15,1.60
2013,04,08,10,17,1.60
2013,04,08,10,18,4.80
2013,04,08,10,20,1.60
2013,04,08,10,21,4.80
2013,04,08,10,22,1.60
2013,04,08,10,23,1.60
2013,04,08,10,24,6.40
2013,04,08,10,25,4.80
2013,04,08,10,26,3.20
2013,04,08,10,27,1.60
2013,04,08,10,29,1.60
2013,04,08,10,30,4.80
2013,04,08,10,31,3.20
2013,04,08,10,32,1.60
2013,04,08,10,33,3.20
2013,04,08,10,34,4.80
2013,04,08,10,35,3.20
2013,04,08,10,36,3.20
2013,04,08,10,37,1.60
2013,04,08,10,38,3.20
2013,04,08,10,39,4.80
2013,04,08,10,40,6.40
2013,04,08,10,41,4.80
2013,04,08,10,42,3.20
2013,04,08,10,43,4.80
2013,04,08,10,44,4.80
2013,04,08,10,45,4.80
2013,04,08,10,46,1.60
2013,04,08,10,47,8.10
2013,04,08,10,48,8.10
2013,04,08,10,49,3.20
2013,04,08,10,50,3.20
2013,04,08,10,52,4.80
2013,04,08,10,53,6.40
2013,04,08,10,54,3.20
2013,04,08,10,55,1.60
2013,04,08,10,56,8.10
2013,04,08,10,57,8.10
2013,04,08,10,58,8.10
2013,04,08,10,59,8.10
2013,04,08,11,00,6.40
2013,04,08,11,01,1.60
2013,04,08,11,02,1.60
2013,04,08,11,03,8.10
2013,04,08,11,04,1.60
2013,04,08,11,07,3.20
2013,04,08,11,08,3.20
2013,04,08,11,09,1.60
2013,04,08,11,10,6.40
2013,04,08,11,11,8.10
2013,04,08,11,12,3.20
2013,04,08,11,13,9.60
2013,04,08,11,14,8.10
2013,04,08,11,15,3.20
2013,04,08,11,16,3.20
2013,04,08,11,22,4.80
2013,04,08,11,24,6.40
2013,04,08,11,25,3.20
2013,04,08,11,27,3.20
2013,04,08,11,28,6.40
2013,04,08,11,29,6.40
2013,04,08,11,30,3.20
2013,04,08,11,31,6.40
2013,04,08,11,32,4.80
2013,04,08,11,33,4.80
2013,04,08,11,34,8.10
2013,04,08,11,35,4.80
2013,04,08,11,36,4.80
2013,04,08,11,37,6.40
2013,04,08,11,38,6.40
2013,04,08,11,39,1.60
2013,04,08,11,40,4.80
2013,04,08,11,41,3.20
2013,04,08,11,42,4.80
2013,04,08,11,43,4.80
2013,04,08,11,44,6.40
2013,04,08,11,45,6.40
2013,04,08,11,46,8.10
2013,04,08,11,47,4.80
2013,04,08,11,48,3.20
2013,04,08,11,49,6.40
2013,04,08,11,50,3.20
2013,04,08,11,51,1.60
2013,04,08,11,52,3.20
2013,04,08,11,53,3.20
2013,04,08,11,54,1.60
2013,04,08,11,55,1.60
2013,04,08,11,56,6.40
2013,04,08,11,57,6.40
2013,04,08,11,58,8.10
2013,04,08,11,59,9.60
2013,04,08,12,00,3.20
2013,04,08,12,01,8.10
2013,04,08,12,02,4.80
2013,04,08,12,03,4.80
2013,04,08,12,04,4.80
2013,04,08,12,05,4.80
2013,04,08,12,06,4.80
2013,04,08,12,07,8.10
2013,04,08,12,08,4.80
2013,04,08,12,09,6.40
2013,04,08,12,10,4.80
2013,04,08,12,11,6.40
2013,04,08,12,12,6.40
2013,04,08,12,13,11.30
2013,04,08,12,14,8.10
2013,04,08,12,15,11.30
2013,04,08,12,16,8.10
2013,04,08,12,17,8.10
2013,04,08,12,18,8.10
2013,04,08,12,19,3.20
2013,04,08,12,20,4.80
2013,04,08,12,21,9.60
2013,04,08,12,22,9.60
2013,04,08,12,23,6.40
2013,04,08,12,24,8.10
2013,04,08,12,25,6.40
2013,04,08,12,26,4.80
2013,04,08,12,27,3.20
2013,04,08,12,28,3.20
2013,04,08,12,29,6.40
2013,04,08,12,30,4.80
2013,04,08,12,31,6.40
2013,04,08,12,32,6.40
2013,04,08,12,33,8.10
2013,04,08,12,34,4.80
2013,04,08,12,35,4.80
2013,04,08,12,36,11.30
2013,04,08,12,37,6.40
2013,04,08,12,38,8.10
2013,04,08,12,39,8.10
2013,04,08,12,40,9.60
2013,04,08,12,41,6.40
2013,04,08,12,42,8.10
2013,04,08,12,43,8.10
2013,04,08,12,44,4.80
2013,04,08,12,45,8.10
2013,04,08,12,46,11.30
2013,04,08,12,47,8.10
2013,04,08,12,48,8.10
2013,04,08,12,49,9.60
2013,04,08,12,50,8.10
2013,04,08,12,51,8.10
2013,04,08,12,52,4.80
2013,04,08,12,53,6.40
2013,04,08,12,54,8.10
2013,04,08,12,55,8.10
2013,04,08,12,56,4.80
2013,04,08,12,57,4.80
2013,04,08,12,58,6.40
2013,04,08,12,59,4.80
2013,04,08,13,00,9.60
2013,04,08,13,01,14.50
2013,04,08,13,02,16.10
2013,04,08,13,03,8.10
2013,04,08,13,04,8.10
2013,04,08,13,05,8.10
2013,04,08,13,06,8.10
2013,04,08,13,07,8.10
2013,04,08,13,08,6.40
2013,04,08,13,09,6.40
2013,04,08,13,10,8.10
2013,04,08,13,11,4.80
2013,04,08,13,12,11.30
2013,04,08,13,13,14.50
2013,04,08,13,14,11.30
2013,04,08,13,15,11.30
2013,04,08,13,16,11.30
2013,04,08,13,17,6.40
2013,04,08,13,18,9.60
2013,04,08,13,19,8.10
2013,04,08,13,20,4.80
2013,04,08,13,21,9.60
2013,04,08,13,22,8.10
2013,04,08,13,23,8.10
2013,04,08,13,24,6.40
2013,04,08,13,25,9.60
2013,04,08,13,26,9.60
2013,04,08,13,27,8.10
2013,04,08,13,28,8.10
2013,04,08,13,29,9.60
2013,04,08,13,30,8.10
2013,04,08,13,31,4.80
2013,04,08,13,32,4.80
2013,04,08,13,33,6.40
2013,04,08,13,34,4.80
2013,04,08,13,35,4.80
2013,04,08,13,36,6.40
2013,04,08,13,37,3.20
2013,04,08,13,38,6.40
2013,04,08,13,39,4.80
2013,04,08,13,40,8.10
2013,04,08,13,41,8.10
2013,04,08,13,42,9.60
2013,04,08,13,43,8.10
2013,04,08,13,44,9.60
2013,04,08,13,45,4.80
2013,04,08,13,46,3.20
2013,04,08,13,47,6.40
2013,04,08,13,48,6.40
2013,04,08,13,49,9.60
2013,04,08,13,50,9.60
2013,04,08,13,51,3.20
2013,04,08,13,52,6.40
2013,04,08,13,53,3.20
2013,04,08,13,54,8.10
2013,04,08,13,55,4.80
2013,04,08,13,56,6.40
2013,04,08,13,57,8.10
2013,04,08,13,58,8.10
2013,04,08,13,59,9.60
2013,04,08,14,00,14.50
2013,04,08,14,01,8.10
2013,04,08,14,02,14.50
2013,04,08,14,03,6.40
2013,04,08,14,04,8.10
2013,04,08,14,05,11.30
2013,04,08,14,06,12.90
2013,04,08,14,07,11.30
2013,04,08,14,08,8.10
2013,04,08,14,09,6.40
2013,04,08,14,10,8.10
2013,04,08,14,11,9.60
2013,04,08,14,12,11.30
2013,04,08,14,13,11.30
2013,04,08,14,14,11.30
2013,04,08,14,15,16.10
2013,04,08,14,16,12.90
2013,04,08,14,17,9.60
2013,04,08,14,18,8.10
2013,04,08,14,19,11.30
2013,04,08,14,20,8.10
2013,04,08,14,21,4.80
2013,04,08,14,22,8.10
2013,04,08,14,23,6.40
2013,04,08,14,24,4.80
2013,04,08,14,25,4.80
2013,04,08,14,26,8.10
2013,04,08,14,27,9.60
2013,04,08,14,28,11.30
2013,04,08,14,29,16.10
2013,04,08,14,30,8.10
2013,04,08,14,31,19.30
2013,04,08,14,32,11.30
2013,04,08,14,33,19.30
2013,04,08,14,34,11.30
2013,04,08,14,35,8.10
2013,04,08,14,36,4.80
2013,04,08,14,37,8.10
2013,04,08,14,38,8.10
2013,04,08,14,39,6.40
2013,04,08,14,40,14.50
2013,04,08,14,41,11.30
2013,04,08,14,42,9.60
2013,04,08,14,43,6.40
2013,04,08,14,44,8.10
2013,04,08,14,45,4.80
2013,04,08,14,46,6.40
2013,04,08,14,47,11.30
2013,04,08,14,48,6.40
2013,04,08,14,49,9.60
2013,04,08,14,50,11.30
2013,04,08,14,51,8.10
2013,04,08,14,52,9.60
2013,04,08,14,53,3.20
2013,04,08,14,54,8.10
2013,04,08,14,55,12.90
2013,04,08,14,56,8.10
2013,04,08,14,57,8.10
2013,04,08,14,58,8.10
2013,04,08,14,59,14.50
2013,04,08,15,00,12.90
2013,04,08,15,01,11.30
2013,04,08,15,02,8.10
2013,04,08,15,03,6.40
2013,04,08,15,04,4.80
2013,04,08,15,05,6.40
2013,04,08,15,06,8.10
2013,04,08,15,07,6.40
2013,04,08,15,08,8.10
2013,04,08,15,09,9.60
2013,04,08,15,10,9.60
2013,04,08,15,11,4.80
2013,04,08,15,12,4.80
2013,04,08,15,13,8.10
2013,04,08,15,14,14.50
2013,04,08,15,15,4.80
2013,04,08,15,16,8.10
2013,04,08,15,17,11.30
2013,04,08,15,18,9.60
2013,04,08,15,19,9.60
2013,04,08,15,20,19.30
2013,04,08,15,21,17.70
2013,04,08,15,22,9.60
2013,04,08,15,23,9.60
2013,04,08,15,24,9.60
2013,04,08,15,25,16.10
2013,04,08,15,26,9.60
2013,04,08,15,27,11.30
2013,04,08,15,28,9.60
2013,04,08,15,29,6.40
2013,04,08,15,30,8.10
2013,04,08,15,31,6.40
2013,04,08,15,32,8.10
2013,04,08,15,33,8.10
2013,04,08,15,34,8.10
2013,04,08,15,35,14.50
2013,04,08,15,36,14.50
2013,04,08,15,37,9.60
2013,04,08,15,38,9.60
2013,04,08,15,39,11.30
2013,04,08,15,40,14.50
2013,04,08,15,41,9.60
2013,04,08,15,42,16.10
2013,04,08,15,43,16.10
2013,04,08,15,44,14.50
2013,04,08,15,45,16.10
2013,04,08,15,46,16.10
2013,04,08,15,47,17.70
2013,04,08,15,48,16.10
2013,04,08,15,49,12.90
2013,04,08,15,50,19.30
2013,04,08,15,51,17.70
2013,04,08,15,52,11.30
2013,04,08,15,53,17.70
2013,04,08,15,54,17.70
2013,04,08,15,55,9.60
2013,04,08,15,56,6.40
2013,04,08,15,57,11.30
2013,04,08,15,58,19.30
2013,04,08,15,59,8.10
2013,04,08,16,00,6.40
2013,04,08,16,01,9.60
2013,04,08,16,02,17.70
2013,04,08,16,03,14.50
2013,04,08,16,04,8.10
2013,04,08,16,05,14.50
2013,04,08,16,06,8.10
2013,04,08,16,07,8.10
2013,04,08,16,08,11.30
2013,04,08,16,09,4.80
2013,04,08,16,10,4.80
2013,04,08,16,11,4.80
2013,04,08,16,12,9.60
2013,04,08,16,13,11.30
2013,04,08,16,14,19.30
2013,04,08,16,15,11.30
2013,04,08,16,16,6.40
2013,04,08,16,17,3.20
2013,04,08,16,18,11.30
2013,04,08,16,19,8.10
2013,04,08,16,20,6.40
2013,04,08,16,21,8.10
2013,04,08,16,22,4.80
2013,04,08,16,23,8.10
2013,04,08,16,24,8.10
2013,04,08,16,25,6.40
2013,04,08,16,26,9.60
2013,04,08,16,27,3.20
2013,04,08,16,28,9.60
2013,04,08,16,29,8.10
2013,04,08,16,30,8.10
2013,04,08,16,31,8.10
2013,04,08,16,32,9.60
2013,04,08,16,33,4.80
2013,04,08,16,34,9.60
2013,04,08,16,35,9.60
2013,04,08,16,36,6.40
2013,04,08,16,37,11.30
2013,04,08,16,38,11.30
2013,04,08,16,39,6.40
2013,04,08,16,40,14.50
2013,04,08,16,41,8.10
2013,04,08,16,42,8.10
2013,04,08,16,43,9.60
2013,04,08,16,44,9.60
2013,04,08,16,45,8.10
2013,04,08,16,46,11.30
2013,04,08,16,47,6.40
2013,04,08,16,48,6.40
2013,04,08,16,49,4.80
2013,04,08,16,50,8.10
2013,04,08,16,51,8.10
2013,04,08,16,52,9.60
2013,04,08,16,53,11.30
2013,04,08,16,54,9.60
2013,04,08,16,55,4.80
2013,04,08,16,56,6.40
2013,04,08,16,57,6.40
2013,04,08,16,58,6.40
2013,04,08,16,59,4.80
2013,04,08,17,00,19.30
2013,04,08,17,01,9.60
2013,04,08,17,02,6.40
2013,04,08,17,03,4.80
2013,04,08,17,04,4.80
2013,04,08,17,05,6.40
2013,04,08,17,06,4.80
2013,04,08,17,07,4.80
2013,04,08,17,08,6.40
2013,04,08,17,09,6.40
2013,04,08,17,10,8.10
2013,04,08,17,11,3.20
2013,04,08,17,12,8.10
2013,04,08,17,13,3.20
2013,04,08,17,14,3.20
2013,04,08,17,15,4.80
2013,04,08,17,16,8.10
2013,04,08,17,17,6.40
2013,04,08,17,18,3.20
2013,04,08,17,19,9.60
2013,04,08,17,20,9.60
2013,04,08,17,21,11.30
2013,04,08,17,22,8.10
2013,04,08,17,23,6.40
2013,04,08,17,24,4.80
2013,04,08,17,25,3.20
2013,04,08,17,26,12.90
2013,04,08,17,27,6.40
2013,04,08,17,28,1.60
2013,04,08,17,29,4.80
2013,04,08,17,30,8.10
2013,04,08,17,31,4.80
2013,04,08,17,32,8.10
2013,04,08,17,33,4.80
2013,04,08,17,34,4.80
2013,04,08,17,35,8.10
2013,04,08,17,36,3.20
2013,04,08,17,37,6.40
2013,04,08,17,38,4.80
2013,04,08,17,39,1.60
2013,04,08,17,41,3.20
2013,04,08,17,42,1.60
2013,04,08,17,43,1.60
2013,04,08,17,48,1.60
2013,04,08,17,49,3.20
2013,04,08,17,50,3.20
2013,04,08,17,51,4.80
2013,04,08,17,52,3.20
2013,04,08,17,53,1.60
2013,04,08,17,54,3.20
2013,04,08,17,55,3.20
2013,04,08,17,56,1.60
2013,04,08,17,57,1.60
2013,04,08,17,58,1.60
2013,04,08,17,59,6.40
2013,04,08,18,00,6.40
2013,04,08,18,01,6.40
2013,04,08,18,02,1.60
2013,04,08,18,03,9.60
2013,04,08,18,04,6.40
2013,04,08,18,05,4.80
2013,04,08,18,06,9.60
2013,04,08,18,07,6.40
2013,04,08,18,08,8.10
2013,04,08,18,09,6.40
2013,04,08,18,10,8.10
2013,04,08,18,11,8.10
2013,04,08,18,12,14.50
2013,04,08,18,13,6.40
2013,04,08,18,14,6.40
2013,04,08,18,15,9.60
2013,04,08,18,16,14.50
2013,04,08,18,17,11.30
2013,04,08,18,18,9.60
2013,04,08,18,19,14.50
2013,04,08,18,20,9.60
2013,04,08,18,21,19.30
2013,04,08,18,22,19.30
2013,04,08,18,23,8.10
2013,04,08,18,24,16.10
2013,04,08,18,25,9.60
2013,04,08,18,26,6.40
2013,04,08,18,27,9.60
2013,04,08,18,28,17.70
2013,04,08,18,29,11.30
2013,04,08,18,30,17.70
2013,04,08,18,31,17.70
2013,04,08,18,32,11.30
2013,04,08,18,33,19.30
2013,04,08,18,34,19.30
2013,04,08,18,35,14.50
2013,04,08,18,36,11.30
2013,04,08,18,37,11.30
2013,04,08,18,38,12.90
2013,04,08,18,39,8.10
2013,04,08,18,40,6.40
2013,04,08,18,41,9.60
2013,04,08,18,42,11.30
2013,04,08,18,43,9.60
2013,04,08,18,44,17.70
2013,04,08,18,45,14.50
2013,04,08,18,46,11.30
2013,04,08,18,47,8.10
2013,04,08,18,48,4.80
2013,04,08,18,49,8.10
2013,04,08,18,50,9.60
2013,04,08,18,51,8.10
2013,04,08,18,52,14.50
2013,04,08,18,53,14.50
2013,04,08,18,54,11.30
2013,04,08,18,55,14.50
2013,04,08,18,56,9.60
2013,04,08,18,57,8.10
2013,04,08,18,58,8.10
2013,04,08,18,59,6.40
2013,04,08,19,00,6.40
2013,04,08,19,01,3.20
2013,04,08,19,02,4.80
2013,04,08,19,03,6.40
2013,04,08,19,04,6.40
2013,04,08,19,05,9.60
2013,04,08,19,06,9.60
2013,04,08,19,07,4.80
2013,04,08,19,08,6.40
2013,04,08,19,09,8.10
2013,04,08,19,10,8.10
2013,04,08,19,11,9.60
2013,04,08,19,12,8.10
2013,04,08,19,13,17.70
2013,04,08,19,14,9.60
2013,04,08,19,15,8.10
2013,04,08,19,16,11.30
2013,04,08,19,17,6.40
2013,04,08,19,18,9.60
2013,04,08,19,19,4.80
2013,04,08,19,20,4.80
2013,04,08,19,21,6.40
2013,04,08,19,22,9.60
2013,04,08,19,23,6.40
2013,04,08,19,24,9.60
2013,04,08,19,25,11.30
2013,04,08,19,26,6.40
2013,04,08,19,27,8.10
2013,04,08,19,28,6.40
2013,04,08,19,29,6.40
2013,04,08,19,30,11.30
2013,04,08,19,31,4.80
2013,04,08,19,32,6.40
2013,04,08,19,33,4.80
2013,04,08,19,34,4.80
2013,04,08,19,35,8.10
2013,04,08,19,36,4.80
2013,04,08,19,37,4.80
2013,04,08,19,38,3.20
2013,04,08,19,39,6.40
2013,04,08,19,40,4.80
2013,04,08,19,41,3.20
2013,04,08,19,42,3.20
2013,04,08,19,43,3.20
2013,04,08,19,44,4.80
2013,04,08,19,45,4.80
2013,04,08,19,46,4.80
2013,04,08,19,47,4.80
2013,04,08,19,48,3.20
2013,04,08,19,49,6.40
2013,04,08,19,50,4.80
2013,04,08,19,51,3.20
2013,04,08,19,52,4.80
2013,04,08,19,53,4.80
2013,04,08,19,54,6.40
2013,04,08,19,55,8.10
2013,04,08,19,56,4.80
2013,04,08,19,57,4.80
2013,04,08,19,58,8.10
2013,04,08,19,59,8.10
2013,04,08,20,00,4.80
2013,04,08,20,01,9.60
2013,04,08,20,02,14.50
2013,04,08,20,03,8.10
2013,04,08,20,04,8.10
2013,04,08,20,05,6.40
2013,04,08,20,06,11.30
2013,04,08,20,07,8.10
2013,04,08,20,08,8.10
2013,04,08,20,09,6.40
2013,04,08,20,10,4.80
2013,04,08,20,11,6.40
2013,04,08,20,12,9.60
2013,04,08,20,13,12.90
2013,04,08,20,14,9.60
2013,04,08,20,15,9.60
2013,04,08,20,16,6.40
2013,04,08,20,17,9.60
2013,04,08,20,18,8.10
2013,04,08,20,19,8.10
2013,04,08,20,20,6.40
2013,04,08,20,21,6.40
2013,04,08,20,22,8.10
2013,04,08,20,23,9.60
2013,04,08,20,24,8.10
2013,04,08,20,25,9.60
2013,04,08,20,26,9.60
2013,04,08,20,27,16.10
2013,04,08,20,28,9.60
2013,04,08,20,29,6.40
2013,04,08,20,30,6.40
2013,04,08,20,31,14.50
2013,04,08,20,32,8.10
2013,04,08,20,33,6.40
2013,04,08,20,34,8.10
2013,04,08,20,35,8.10
2013,04,08,20,36,8.10
2013,04,08,20,37,6.40
2013,04,08,20,38,4.80
2013,04,08,20,39,9.60
2013,04,08,20,40,8.10
2013,04,08,20,41,9.60
2013,04,08,20,42,4.80
2013,04,08,20,43,6.40
2013,04,08,20,44,8.10
2013,04,08,20,45,11.30
2013,04,08,20,46,6.40
2013,04,08,20,47,6.40
2013,04,08,20,48,6.40
2013,04,08,20,49,9.60
2013,04,08,20,50,8.10
2013,04,08,20,51,6.40
2013,04,08,20,52,6.40
2013,04,08,20,53,4.80
2013,04,08,20,54,6.40
2013,04,08,20,55,6.40
2013,04,08,20,56,4.80
2013,04,08,20,57,6.40
2013,04,08,20,58,4.80
2013,04,08,20,59,4.80
2013,04,08,21,00,4.80
2013,04,08,21,01,3.20
2013,04,08,21,02,3.20
2013,04,08,21,03,6.40
2013,04,08,21,04,4.80
2013,04,08,21,05,3.20